Wind_Speed
9 10 8 7 6 5 4 3 3 5 7 5 6 7 7 8 9 8 10 8 8 10 8 9 5 9 10 11 10 10 11 12 11 7 6 4 3 3
10 7 6 6 6 5 5 7 4 4 6 4 7 8 7 5 6 7 10 9 6 6 9 10 8 7 11 14 13 11 9 10 12 9 5 5 4 3
11 11 9 7 7 7 5 7 7 6 7 9 6 6 4 4 6 6 6 6 9 12 15 16 12 12 13 17 13 13 2 5 8 8 5 2 4 2
9 8 8 9 10 10 8 8 8 8 8 8 8 8 7 8 9 8 11 12 15 15 15 12 12 10 8 5 5 8 6 6 7 6 5 3 1 1
12 8 5 6 6 6 6 7 8 7 9 10 11 11 9 12 12 11 11 10 10 9 8 4 2 3 3 1 6 6 5 3 3 5 5 4 2 2
15 15 12 12 10 10 9 8 8 10 11 10 10 10 11 12 13 13 9 8 3 3 6 8 5 3 3 4 3 4 4 5 1 1 1 3 5 5
18 15 14 12 11 13 12 11 12 9 7 7 8 9 10 10 11 10 8 4 1 5 7 9 7 6 5 3 3 7 7 5 5 8 8 3 1 4
16 16 16 14 12 11 12 10 8 7 9 9 9 9 10 10 8 7 7 7 4 7 9 9 5 7 8 8 7 6 6 6 8 9 10 4 3 4
15 13 13 12 11 13 14 12 11 12 12 11 11 10 10 9 8 6 7 8 8 8 10 5 3 3 7 7 8 8 8 8 8 7 6 6 5 6
15 15 16 16 14 14 14 14 13 13 12 11 10 11 10 9 9 8 5 5 7 10 10 5 3 1 2 8 8 8 7 5 5 6 7 8 7 8
12 13 15 16 14 14 13 12 13 14 12 11 10 9 9 10 10 9 6 5 6 10 10 6 5 2 5 3 10 7 4 3 3 3 1 2 6 8
14 7 12 15 14 12 12 11 12 12 11 9 8 8 8 8 8 8 9 10 12 9 8 5 5 7 3 5 10 7 7 5 6 6 7 8 7 9
11 13 13 10 8 7 7 9 10 10 10 10 9 9 9 9 10 11 11 12 12 7 6 7 9 8 4 4 7 11 12 9 7 8 10 11 13 13
9 10 9 7 5 6 6 7 8 9 11 10 12 13 13 13 11 11 12 12 9 8 7 8 10 9 8 8 9 11 13 13 13 17 18 16 16 16
11 10 7 8 7 8 10 9 9 10 11 13 15 15 14 13 11 11 12 12 11 11 10 10 9 9 9 10 10 12 17 19 17 20 20 22 22 22
11 9 8 8 8 8 9 9 10 12 12 12 13 13 11 10 9 10 10 11 10 9 7 7 8 8 10 11 11 14 16 15 21 23 22 21 21 21
8 9 10 10 10 11 11 11 11 12 12 10 10 10 9 8 7 7 7 6 7 6 4 4 7 8 9 10 11 15 17 18 20 21 20 22 23 23
11 12 13 13 12 11 11 10 9 9 9 7 8 8 8 7 6 4 3 3 4 5 7 8 8 8 8 11 11 15 17 18 20 22 23 24 24 24
14 14 13 11 9 7 6 5 5 6 6 5 6 6 6 5 4 3 3 4 5 7 8 10 12 12 12 13 11 16 17 19 20 21 23 25 24 24
12 12 11 7 4 4 6 6 7 7 7 7 5 5 5 4 4 4 4 5 7 7 8 9 10 11 12 12 12 13 16 17 19 21 22 22 21 23
10 11 10 6 3 6 9 9 8 9 9 6 5 5 5 4 5 5 5 6 6 6 8 9 10 12 12 10 9 11 13 15 17 19 22 24 27 27
8 11 9 6 5 7 9 10 9 8 8 7 6 5 6 5 6 6 5 4 5 6 8 8 7 7 8 9 10 9 9 10 13 17 20 21 25 25
8 8 7 7 8 10 12 10 10 9 7 6 5 6 6 5 6 5 5 4 5 6 6 5 6 7 7 9 11 12 14 16 19 16 16 19 21 24
Wind_Direction
254 248 251 252 259 275 295 307 6 347 329 1 354 346 340 313 334 354 342 342 343 25 17 8 339 340 347 348 350 345 342 357 358 335 312 275 286 297
240 248 242 245 253 261 272 283 281 291 292 327 333 330 325 319 359 342 346 17 41 350 347 359 329 317 321 332 324 336 334 347 352 347 326 263 244 284
248 258 244 253 272 287 270 258 269 279 286 300 316 338 321 329 323 332 331 322 323 319 320 318 306 304 319 327 304 308 35 27 5 359 352 283 227 258
240 250 241 253 267 266 265 269 275 274 283 295 305 307 301 295 307 326 314 318 314 314 317 325 319 309 316 15 2 106 94 63 35 30 34 51 157 241
243 232 214 242 257 262 269 268 276 278 281 293 294 294 291 290 295 305 312 311 319 325 337 347 328 270 257 9 103 111 124 123 76 78 68 64 32 2
234 246 248 247 253 252 258 267 269 283 286 284 287 288 291 295 306 311 316 321 3 27 43 32 17 322 273 288 285 182 251 311 244 165 101 61 51 74
238 241 249 253 264 266 272 267 279 281 276 278 280 285 288 297 309 319 335 354 27 39 43 36 20 7 20 332 278 281 271 311 327 311 315 278 104 330
238 245 251 259 262 259 262 263 270 282 301 297 290 289 291 302 311 331 344 352 12 15 26 37 43 48 37 36 38 22 358 355 339 347 341 296 166 273
245 252 255 257 264 264 265 270 272 282 294 292 287 290 297 294 301 322 338 342 344 349 346 21 59 71 58 32 7 7 357 351 358 8 8 11 7 7
243 249 249 257 265 265 261 262 268 277 281 279 280 286 281 278 288 305 306 329 327 322 329 322 57 111 23 25 5 0 357 1 21 38 58 63 42 39
255 265 268 265 261 255 247 254 265 271 275 276 277 278 281 286 290 291 295 291 309 314 318 318 2 88 222 288 4 14 6 3 338 4 57 352 336 326
257 257 281 271 260 245 239 244 249 255 261 265 269 274 270 269 272 279 289 309 319 314 312 333 351 17 232 266 334 5 18 7 352 337 331 325 308 302
239 230 230 235 236 234 231 231 226 234 233 237 237 245 254 260 271 283 293 305 313 316 323 334 332 340 344 323 345 349 355 0 5 2 354 346 345 339
216 204 198 191 213 216 216 212 214 212 224 246 249 253 259 269 274 282 293 300 306 317 326 327 323 337 344 341 346 343 344 345 348 351 350 347 343 340
210 200 218 253 242 247 250 245 249 243 243 246 260 263 262 264 266 275 285 291 298 308 316 326 337 340 340 339 338 337 338 338 340 338 343 346 343 339
222 234 240 245 246 254 257 249 249 254 259 265 262 257 250 243 251 260 264 271 282 298 315 329 337 341 338 342 342 340 340 340 333 338 347 349 349 349
229 237 240 245 255 261 260 262 265 265 265 257 244 242 243 245 241 228 234 246 257 265 286 336 343 340 337 335 331 338 342 345 347 347 344 352 356 356
266 251 248 252 253 255 257 257 253 254 248 240 235 237 238 241 243 244 261 276 288 303 319 330 345 354 347 342 342 346 350 355 357 357 356 358 3 5
257 249 236 232 242 243 247 257 269 256 250 244 235 236 242 241 247 258 285 308 318 326 337 343 344 344 352 10 357 351 354 356 359 360 4 8 10 10
246 227 225 213 227 262 276 282 284 278 275 271 270 263 254 250 263 283 300 315 322 330 340 342 345 352 2 5 9 12 8 4 5 2 356 357 1 360
241 221 215 212 251 292 291 291 289 286 277 273 275 274 272 278 287 291 307 315 325 336 349 356 6 10 7 1 7 11 13 9 3 2 0 357 354 358
224 209 210 233 269 275 289 290 283 269 269 279 281 270 272 276 282 288 299 314 329 351 5 10 6 1 359 0 1 3 6 7 8 9 16 15 9 351
214 213 243 259 274 296 298 287 268 255 253 265 268 269 277 293 296 305 314 323 337 343 344 341 340 349 2 0 3 9 5 360 356 354 355 0 2 357
Height
1595 1595 1596 1596 1596 1596 1596 1595 1594 1592 1591 1590 1590 1588 1587 1586 1585 1584 1583 1580 1579 1579 1577 1574 1573 1573 1571 1569 1567 1565 1563 1562 1559 1557 1555 1554 1554 1554
1594 1594 1594 1594 1594 1594 1594 1593 1593 1592 1591 1590 1589 1588 1588 1586 1585 1584 1582 1581 1580 1579 1577 1574 1574 1572 1570 1568 1565 1564 1562 1561 1559 1556 1554 1553 1553 1553
1593 1592 1592 1592 1592 1592 1591 1591 1590 1590 1590 1590 1588 1588 1587 1585 1585 1584 1583 1582 1581 1579 1577 1575 1573 1571 1569 1566 1564 1562 1561 1560 1558 1556 1554 1552 1552 1552
1591 1591 1590 1591 1590 1589 1589 1589 1589 1588 1588 1588 1588 1588 1587 1586 1584 1583 1581 1580 1579 1577 1574 1573 1570 1569 1567 1564 1561 1560 1560 1559 1557 1555 1554 1552 1551 1551
1589 1589 1589 1589 1589 1588 1587 1587 1586 1586 1586 1585 1586 1586 1585 1584 1583 1582 1580 1578 1577 1575 1573 1572 1569 1567 1565 1563 1561 1560 1558 1557 1556 1555 1554 1552 1552 1551
1586 1588 1588 1588 1588 1588 1587 1587 1586 1586 1585 1584 1584 1583 1583 1582 1581 1580 1579 1577 1576 1575 1574 1572 1569 1566 1564 1563 1561 1558 1557 1557 1555 1554 1553 1552 1551 1550
1583 1584 1585 1586 1586 1586 1586 1585 1585 1584 1583 1582 1582 1582 1581 1580 1578 1576 1575 1575 1575 1575 1574 1572 1569 1566 1563 1562 1560 1557 1556 1555 1554 1553 1552 1550 1549 1549
1581 1581 1582 1583 1584 1583 1583 1583 1582 1581 1581 1580 1580 1580 1578 1577 1576 1576 1575 1574 1574 1575 1574 1573 1570 1567 1564 1562 1560 1558 1556 1556 1555 1553 1551 1549 1547 1547
1579 1579 1580 1580 1581 1581 1581 1581 1580 1579 1578 1578 1578 1577 1577 1576 1576 1576 1575 1573 1572 1573 1573 1573 1571 1568 1566 1563 1561 1559 1557 1555 1554 1553 1550 1548 1547 1545
1575 1575 1577 1577 1577 1577 1578 1578 1577 1576 1575 1574 1574 1575 1575 1574 1575 1574 1573 1572 1572 1571 1570 1570 1570 1568 1566 1564 1561 1558 1556 1555 1555 1554 1551 1549 1547 1546
1570 1572 1574 1574 1574 1574 1574 1575 1574 1574 1573 1573 1572 1572 1573 1572 1572 1573 1573 1572 1570 1569 1567 1568 1567 1565 1564 1563 1560 1557 1555 1553 1553 1553 1551 1549 1547 1546
1565 1567 1569 1570 1570 1571 1571 1571 1572 1572 1571 1571 1571 1570 1570 1571 1570 1571 1571 1570 1569 1568 1565 1565 1564 1565 1564 1562 1560 1557 1554 1552 1551 1549 1548 1547 1545 1543
1562 1563 1564 1566 1566 1567 1568 1570 1570 1571 1571 1571 1571 1571 1570 1569 1568 1568 1567 1567 1565 1564 1564 1563 1563 1561 1559 1559 1558 1555 1554 1552 1550 1547 1544 1542 1542 1539
1562 1563 1563 1563 1564 1565 1567 1567 1567 1568 1570 1571 1570 1569 1568 1567 1566 1565 1565 1564 1563 1561 1561 1561 1560 1558 1557 1554 1554 1553 1550 1549 1547 1545 1542 1538 1536 1535
1559 1560 1561 1562 1562 1563 1564 1563 1565 1565 1565 1566 1567 1567 1566 1564 1564 1562 1562 1563 1561 1561 1558 1558 1557 1555 1554 1554 1552 1549 1547 1544 1543 1541 1539 1537 1531 1528
1557 1558 1559 1560 1560 1561 1562 1562 1563 1563 1562 1562 1561 1561 1561 1561 1561 1561 1559 1559 1559 1559 1558 1556 1555 1554 1553 1550 1549 1548 1548 1546 1541 1536 1534 1531 1530 1526
1555 1556 1555 1555 1557 1559 1560 1561 1562 1561 1559 1558 1558 1558 1559 1559 1560 1558 1559 1559 1559 1556 1555 1554 1554 1552 1549 1549 1549 1546 1543 1540 1539 1535 1531 1528 1524 1522
1553 1553 1553 1555 1554 1555 1557 1557 1556 1557 1557 1557 1557 1558 1556 1556 1557 1556 1556 1556 1556 1555 1554 1552 1550 1551 1549 1546 1545 1544 1540 1538 1534 1532 1527 1525 1523 1519
1547 1549 1547 1551 1555 1554 1556 1557 1558 1557 1557 1556 1555 1555 1556 1555 1555 1554 1552 1552 1552 1552 1550 1549 1548 1546 1545 1545 1544 1541 1538 1535 1531 1529 1526 1524 1520 1517
1547 1545 1548 1549 1553 1554 1556 1556 1556 1555 1556 1556 1555 1554 1555 1554 1552 1553 1551 1548 1549 1549 1547 1547 1546 1545 1543 1543 1541 1539 1537 1534 1530 1527 1524 1521 1520 1517
1545 1545 1548 1548 1551 1553 1555 1553 1553 1555 1556 1552 1552 1554 1554 1553 1551 1550 1549 1549 1547 1546 1544 1543 1543 1543 1542 1541 1540 1537 1536 1534 1530 1525 1523 1518 1515 1511
1543 1545 1545 1547 1547 1552 1554 1551 1549 1550 1553 1552 1551 1551 1553 1551 1550 1549 1547 1546 1545 1544 1543 1542 1542 1542 1541 1541 1540 1538 1535 1533 1530 1525 1521 1518 1512 1508
1540 1543 1546 1546 1548 1549 1548 1548 1548 1548 1548 1549 1548 1550 1550 1549 1550 1548 1546 1544 1542 1542 1542 1541 1541 1540 1539 1538 1538 1535 1532 1530 1527 1524 1522 1517 1513 1509